| time (UTC) | temp F | wind direction | speed MPH | gust MPH | rain 1hr in | rain 24hr in | rain mn in | humidity % | barometer mb |
| 20260505021531 | 72 | 212 | 2.0 | 6.0 | 0.00 | 0.00 | 0.00 | 45 | 1011.3 |
| 20260505020029 | 73 | 232 | 2.0 | 8.0 | 0.00 | 0.00 | 0.00 | 43 | 1011.2 |
| 20260505014533 | 74 | 242 | 4.0 | 10.0 | 0.00 | 0.00 | 0.00 | 41 | 1011.2 |
| 20260505013031 | 75 | 263 | 4.0 | 11.0 | 0.00 | 0.00 | 0.00 | 39 | 1011.1 |
| 20260505011531 | 77 | 261 | 5.0 | 12.0 | 0.00 | 0.00 | 0.00 | 36 | 1011.0 |
| 20260505010106 | 78 | 256 | 5.0 | 14.0 | 0.00 | 0.00 | 0.00 | 36 | 1011.1 |
| 20260505004529 | 79 | 264 | 5.0 | 14.0 | 0.00 | 0.00 | 0.00 | 35 | 1011.0 |
| 20260505001533 | 80 | 262 | 6.0 | 14.0 | 0.00 | 0.00 | 0.00 | 35 | 1010.8 |
| 20260505000029 | 81 | 265 | 7.0 | 14.0 | 0.00 | 0.00 | 0.00 | 35 | 1010.9 |
| 20260504234531 | 81 | 261 | 6.0 | 16.0 | 0.00 | 0.00 | 0.00 | 35 | 1010.7 |
| 20260504233030 | 81 | 269 | 7.0 | 16.0 | 0.00 | 0.00 | 0.00 | 34 | 1010.8 |
| 20260504231607 | 81 | 266 | 9.0 | 17.0 | 0.00 | 0.00 | 0.00 | 34 | 1010.8 |
| 20260504230031 | 82 | 264 | 8.0 | 16.0 | 0.00 | 0.00 | 0.00 | 34 | 1010.9 |
| 20260504223031 | 81 | 261 | 8.0 | 18.0 | 0.00 | 0.00 | 0.00 | 34 | 1011.1 |
| 20260504221531 | 81 | 268 | 8.0 | 18.0 | 0.00 | 0.00 | 0.00 | 34 | 1011.0 |
| 20260504220104 | 81 | 267 | 7.0 | 16.0 | 0.00 | 0.00 | 0.00 | 34 | 1011.2 |
| 20260504214530 | 80 | 266 | 9.0 | 19.0 | 0.00 | 0.00 | 0.00 | 35 | 1011.2 |
| 20260504213116 | 80 | 259 | 8.0 | 18.0 | 0.00 | 0.00 | 0.00 | 35 | 1011.2 |
| 20260504211533 | 80 | 270 | 8.0 | 18.0 | 0.00 | 0.00 | 0.00 | 35 | 1011.3 |
| 20260504210031 | 80 | 255 | 6.0 | 16.0 | 0.00 | 0.00 | 0.00 | 35 | 1011.3 |
| 20260504204531 | 81 | 265 | 6.0 | 16.0 | 0.00 | 0.00 | 0.00 | 35 | 1011.4 |
| 20260504203105 | 81 | 259 | 5.0 | 17.0 | 0.00 | 0.00 | 0.00 | 34 | 1011.6 |
| 20260504201530 | 80 | 318 | 3.0 | 11.0 | 0.00 | 0.00 | 0.00 | 36 | 1011.7 |
| 20260504200032 | 81 | 12 | 3.0 | 12.0 | 0.00 | 0.00 | 0.00 | 39 | 1011.7 |
| 20260504194530 | 81 | 32 | 4.0 | 8.0 | 0.00 | 0.00 | 0.00 | 40 | 1011.7 |
| 20260504193030 | 80 | 43 | 4.0 | 10.0 | 0.00 | 0.00 | 0.00 | 40 | 1011.7 |
| 20260504191608 | 80 | 54 | 5.0 | 9.0 | 0.00 | 0.00 | 0.00 | 41 | 1011.8 |
| 20260504184531 | 79 | 63 | 5.0 | 11.0 | 0.00 | 0.00 | 0.00 | 42 | 1011.9 |
| 20260504183030 | 80 | 60 | 6.0 | 11.0 | 0.00 | 0.00 | 0.00 | 41 | 1012.0 |
| 20260504180031 | 80 | 33 | 2.0 | 6.0 | 0.00 | 0.00 | 0.00 | 39 | 1012.0 |
| 20260504173030 | 80 | 33 | 3.0 | 7.0 | 0.00 | 0.00 | 0.00 | 38 | 1012.1 |
| 20260504171646 | 79 | 6 | 2.0 | 5.0 | 0.00 | 0.00 | 0.00 | 38 | 1012.1 |
| 20260504081530 | 47 | 175 | 0.0 | 3.0 | 0.00 | 0.00 | 0.00 | 82 | 1012.1 |
| 20260504080144 | 48 | 188 | 0.0 | 2.0 | 0.00 | 0.00 | 0.00 | 80 | 1012.2 |
| 20260504044531 | 59 | 198 | 2.0 | 4.0 | 0.00 | 0.00 | 0.00 | 58 | 1011.7 |
| 20260504043032 | 60 | 154 | 3.0 | 5.0 | 0.00 | 0.00 | 0.00 | 58 | 1011.6 |
| 20260504041531 | 61 | 135 | 3.0 | 4.0 | 0.00 | 0.00 | 0.00 | 58 | 1011.4 |
| 20260504040039 | 61 | 105 | 3.0 | 6.0 | 0.00 | 0.00 | 0.00 | 57 | 1011.2 |
| 20260504034531 | 63 | 209 | 0.0 | 3.0 | 0.00 | 0.00 | 0.00 | 53 | 1011.0 |
| 20260504033103 | 65 | 190 | 1.0 | 4.0 | 0.00 | 0.00 | 0.00 | 50 | 1010.8 |
| 20260504031532 | 68 | 157 | 3.0 | 6.0 | 0.00 | 0.00 | 0.00 | 48 | 1010.6 |
| 20260504030033 | 71 | 211 | 1.0 | 4.0 | 0.00 | 0.00 | 0.00 | 46 | 1010.5 |
| 20260504024530 | 74 | 247 | 2.0 | 4.0 | 0.00 | 0.00 | 0.00 | 40 | 1010.4 |
| 20260504023147 | 78 | 278 | 1.0 | 4.0 | 0.00 | 0.00 | 0.00 | 35 | 1010.4 |